[[{"header":{"parameterUnit":"m.s-1","parameterCategory":1,"la1":30.2991,"la2":30.254,"lo1":-89.0895,"lo2":-89.0444,"dy":0.0017,"dx":0.0017,"nx":28,"ny":28,"refTime":"2025-08-06T03:00:00:Z","depth":0,"parameterNumber":2,"parameterNumberName":"U-component_of_WINDS"},"data":[0,0,0,0,0,0,0,0,0,0,0,0,0,0,0,0,0,0,0,0,0,0,0,0,0,0,0,0,0,0,0,0,0,0,0,0,0,0,0,0,0,0,0,0,0,0,0,0,0,0,0,0,0,0,0,0,0,0,1.8854,1.8857,0,1.9097,1.9099,1.9102,1.9171,1.9169,1.9168,1.9167,1.942,1.9427,1.9435,0,0,0,0,0,0,0,0,0,0,0,0,0,1.8453,1.846,1.8854,1.8857,1.886,1.9096,1.9099,1.9103,1.9171,1.9169,1.9168,1.9166,1.9417,1.9426,1.9436,0,0,0,0,0,0,0,0,0,0,0,0,0,1.8655,1.8463,1.8853,1.8922,1.8931,1.9095,1.91,1.9104,1.9171,1.9169,1.9167,1.9165,1.9414,1.9425,1.9437,1.9552,0,0,1.9474,1.9479,0,0,0,0,0,0,0,0,1.8643,1.8669,1.8909,1.8918,1.8928,1.9101,1.9051,1.9254,1.9172,1.908,1.9167,1.9164,1.9316,1.9335,1.9386,1.9564,1.9575,1.9475,1.9482,1.9487,1.9491,0,0,0,0,0,0,0,1.8629,1.8659,1.895,1.8913,1.8924,1.8942,1.8969,1.909,1.9207,1.9088,1.9094,1.9121,1.932,1.9374,1.9392,1.9578,1.9475,1.9485,1.9493,1.9497,1.9862,1.9864,0,0,0,0,0,0,1.8603,1.8647,1.8942,1.8957,1.8778,1.8951,1.8981,1.9048,1.9205,1.9227,1.9123,1.9123,1.9354,1.9378,1.9401,1.9545,1.9487,1.9498,1.9505,1.9859,1.9862,1.9865,0,0,0,0,0,0,1.8594,1.8629,1.8933,1.8804,1.8844,1.896,1.9035,1.9054,1.9107,1.9231,1.9253,1.9156,1.9354,1.9384,1.9513,1.9555,1.9504,1.9515,1.9856,1.986,1.9864,1.9834,0,0,0,0,0,0,1.8582,1.8625,1.8669,1.8804,1.8851,1.904,1.9038,1.906,1.9127,1.913,1.9268,1.9289,1.9354,1.9495,1.9525,1.957,1.9524,1.9853,1.9858,1.9863,1.9832,1.9836,1.984,0,0,0,0,0,1.8568,1.8652,1.8671,1.8706,1.8908,1.9042,1.9069,1.9141,1.913,1.9176,1.9255,1.9285,1.9545,1.9508,1.9542,1.9592,1.9851,1.9857,1.9862,1.983,1.9835,1.984,0,0,0,0,0,0,1.852,1.8671,1.8694,1.8824,1.8919,1.9053,1.9113,1.9144,1.9246,1.9245,1.9332,1.9362,1.9485,1.9552,1.9507,1.971,1.9699,1.9712,1.9662,1.9669,1.9673,1.9654,1.9534,0,0,0,0,0,1.8525,1.862,1.8747,1.885,1.8896,1.8996,1.9057,1.9105,1.9207,1.9249,1.9338,1.9438,1.9542,1.9609,1.9712,1.9842,1.9872,1.9893,1.9897,1.9899,1.9909,1.9982,1.9992,1.9884,1.9884,1.9883,0,0,1.8536,1.863,1.8685,1.8843,1.8922,1.9019,1.903,1.9133,1.9206,1.9265,1.9391,1.946,1.9578,1.9707,1.9768,1.9766,1.9946,1.9907,1.9908,1.9917,1.9989,1.9999,2.0008,1.9887,1.9887,1.9886,0,0,1.8605,1.8685,1.8779,1.8858,1.8978,1.9043,1.9066,1.9195,1.9242,1.937,1.9416,1.9505,1.9683,1.9764,1.9829,1.9927,1.9958,1.9959,1.998,2.005,2.0058,2.0066,2.0101,2.0112,1.9968,1.9968,1.9968,0,1.8603,1.875,1.8824,1.8924,1.8992,1.9048,1.9144,1.9218,1.9365,1.9412,1.9406,1.963,1.9713,1.9862,1.9885,1.9936,1.9965,1.9943,2.0051,2.006,2.0068,2.0102,2.0115,1.9967,1.9968,1.9968,1.9968,0,1.8743,1.8844,1.8906,1.9044,1.912,1.9217,1.9307,1.9374,1.9415,1.9481,1.961,1.9711,1.9835,1.9874,1.9916,2.0029,2.0023,2.0034,2.0024,2.0077,2.011,2.0124,1.9966,1.9967,1.9967,1.9967,0,0,1.8789,1.8966,1.8988,1.9051,1.9186,1.9267,1.9367,1.9486,1.9542,1.9642,1.9728,1.9877,1.9887,1.996,2.0011,2.0072,2.0142,2.0075,2.0079,2.0083,2.0273,2.0263,2.0277,2.0163,2.0166,2.0168,2.0262,0,1.8875,1.9054,1.9123,1.927,1.9364,1.9418,1.9506,1.9599,1.9663,1.9753,1.9825,1.9929,1.9934,1.9978,2.0041,2.012,2.0181,2.0115,2.0245,2.0249,2.0213,2.0295,2.0286,2.037,2.0276,2.0278,2.028,0,1.8999,1.9097,1.9253,1.9376,1.9418,1.9495,1.9609,1.9695,1.9801,1.9844,1.9925,1.9972,2.0079,2.0062,2.0212,2.0164,2.0222,2.0269,2.0274,2.0289,2.0267,2.0311,2.0399,2.0411,2.0301,2.03,2.0298,0,1.9016,1.9188,1.9303,1.9356,1.9502,1.9555,1.9619,1.9723,1.979,1.989,1.9935,2.0047,2.0109,2.0195,2.0271,2.0251,2.0413,2.0403,2.0452,2.045,2.0483,2.048,2.058,2.0521,2.0521,2.052,2.052,0,1.9104,1.9197,1.9313,1.9384,1.9489,1.9568,1.9671,1.9738,1.983,1.9916,1.997,2.0049,2.0145,2.0237,2.0297,2.0411,2.0439,2.0477,2.0492,2.0472,2.0467,2.051,2.0506,2.0524,2.0523,2.0522,2.0522,0,1.9141,1.9223,1.9351,1.9479,1.9513,1.9585,1.9694,1.9766,1.9832,1.9939,1.9969,2.0073,2.0184,2.0268,2.0413,2.0453,2.0574,2.059,2.0537,2.0545,2.0589,2.0583,2.072,2.0742,2.0668,2.0668,2.0669,0,1.9192,1.9264,1.9399,1.9459,1.9521,1.9618,1.9686,1.9766,1.9835,1.9961,2.0017,2.0131,2.0226,2.0401,2.049,2.0601,2.062,2.066,2.0637,2.0614,2.0619,2.0614,2.0621,2.0663,2.0663,2.0664,2.0664,0,1.9273,1.9309,1.9404,1.9514,1.9593,1.9683,1.9775,1.9821,1.9918,1.9993,2.0106,2.0179,2.0325,2.0438,2.0557,2.0624,2.066,2.067,2.0687,2.0668,2.0633,2.0652,2.0545,2.0667,2.0667,2.0666,2.0666,2.0666,1.9318,1.9384,1.9489,1.9593,1.967,1.9754,1.9826,1.9901,1.9996,2.012,2.0162,2.0278,2.0382,2.0546,2.0613,2.0706,2.0707,2.0732,2.0738,2.0743,2.074,2.0619,2.0728,2.0728,2.0728,2.0728,2.0728,0,1.9401,1.947,1.9565,1.9691,1.9773,1.9798,1.99,1.9968,2.0068,2.0162,2.0254,2.0383,2.0492,2.059,2.0703,2.0758,2.0778,2.0786,2.0782,2.0797,2.0734,2.0707,2.0768,2.0768,2.0768,2.0768,2.0768,2.0768,1.9453,1.9567,1.9615,1.9767,1.9837,1.995,2.0006,2.0084,2.0159,2.03,2.039,2.0452,2.0547,2.0668,2.0769,2.0795,2.0834,2.0838,2.0867,2.0807,2.0801,2.0797,2.0772,2.0846,2.0846,2.0923,2.0924,2.0924]},{"header":{"parameterUnit":"m.s-1","parameterCategory":1,"la1":30.2991,"la2":30.254,"lo1":-89.0895,"lo2":-89.0444,"dy":0.0017,"dx":0.0017,"nx":28,"ny":28,"refTime":"2025-08-06T03:00:00:Z","depth":0,"parameterNumber":3,"parameterNumberName":"V-component_of_WINDS"},"data":[0,0,0,0,0,0,0,0,0,0,0,0,0,0,0,0,0,0,0,0,0,0,0,0,0,0,0,0,0,0,0,0,0,0,0,0,0,0,0,0,0,0,0,0,0,0,0,0,0,0,0,0,0,0,0,0,0,0,2.4173,2.4172,0,2.4117,2.4116,2.4115,2.4064,2.4063,2.4063,2.4062,2.4002,2.4001,2.4,0,0,0,0,0,0,0,0,0,0,0,0,0,2.4234,2.4233,2.4173,2.4172,2.4172,2.4117,2.4116,2.4115,2.4064,2.4063,2.4063,2.4062,2.4003,2.4002,2.4,0,0,0,0,0,0,0,0,0,0,0,0,0,2.4195,2.4233,2.4173,2.414,2.4136,2.4117,2.4116,2.4115,2.4064,2.4063,2.4062,2.4062,2.4003,2.4002,2.4,2.4009,0,0,2.3996,2.3995,0,0,0,0,0,0,0,0,2.4198,2.4193,2.4145,2.4142,2.4138,2.4096,2.4115,2.4079,2.4064,2.4091,2.4062,2.4061,2.4034,2.403,2.4022,2.4006,2.4004,2.3995,2.3995,2.3994,2.3993,0,0,0,0,0,0,0,2.42,2.4195,2.4151,2.4144,2.414,2.4126,2.412,2.4108,2.4069,2.4089,2.4085,2.4079,2.4032,2.4023,2.402,2.4003,2.3995,2.3994,2.3993,2.3993,2.399,2.3991,0,0,0,0,0,0,2.4208,2.4198,2.4152,2.4149,2.4166,2.4126,2.4119,2.4111,2.4069,2.4061,2.408,2.4077,2.4026,2.4022,2.4018,2.4023,2.3994,2.3992,2.3992,2.3989,2.399,2.3991,0,0,0,0,0,0,2.421,2.4205,2.4155,2.4172,2.4165,2.4126,2.4117,2.411,2.4101,2.4062,2.4054,2.4078,2.4025,2.402,2.4011,2.402,2.3992,2.399,2.3988,2.3989,2.3991,2.4036,0,0,0,0,0,0,2.4212,2.4206,2.4209,2.4173,2.4164,2.415,2.4118,2.411,2.4099,2.4094,2.4058,2.4052,2.4024,2.4014,2.401,2.4018,2.3989,2.3987,2.3989,2.399,2.4034,2.4039,2.4043,0,0,0,0,0,2.4214,2.4225,2.421,2.4205,2.4168,2.4151,2.4146,2.4115,2.41,2.4102,2.4077,2.4053,2.4021,2.4013,2.4008,2.4016,2.3986,2.3988,2.399,2.4031,2.4038,2.4043,0,0,0,0,0,0,2.4263,2.4219,2.4202,2.4201,2.418,2.4142,2.4145,2.4123,2.4105,2.4102,2.4063,2.4056,2.4051,2.4033,2.4026,2.4022,2.4,2.4001,2.4033,2.4039,2.4044,2.4047,2.3988,0,0,0,0,0,2.4274,2.4264,2.4226,2.4229,2.4219,2.4184,2.4176,2.4153,2.413,2.412,2.4095,2.4072,2.4056,2.4047,2.4031,2.4031,2.4022,2.4034,2.4039,2.4043,2.4044,2.404,2.4045,2.3997,2.3997,2.3997,0,0,2.4295,2.427,2.4266,2.4238,2.4219,2.4209,2.4177,2.4168,2.4159,2.4119,2.4109,2.4089,2.4061,2.4057,2.4054,2.4042,2.4055,2.4046,2.4049,2.4047,2.4043,2.4047,2.4051,2.3998,2.3998,2.3998,0,0,2.4329,2.431,2.4309,2.4291,2.4263,2.4239,2.4239,2.4205,2.419,2.418,2.4148,2.4138,2.4113,2.4093,2.408,2.4106,2.4082,2.4102,2.4126,2.4124,2.4127,2.413,2.4137,2.4141,2.4103,2.4103,2.4103,0,2.4359,2.4343,2.4311,2.4304,2.4291,2.4255,2.4253,2.4236,2.4204,2.4196,2.4184,2.415,2.4129,2.4118,2.4125,2.4116,2.4113,2.4105,2.413,2.4132,2.4135,2.4141,2.4144,2.4106,2.4105,2.4105,2.4105,0,2.438,2.437,2.4373,2.4343,2.4331,2.4326,2.4292,2.4284,2.4263,2.4241,2.423,2.4203,2.418,2.4176,2.4156,2.4162,2.4155,2.4137,2.4114,2.4142,2.4147,2.415,2.4109,2.4108,2.4108,2.4107,0,0,2.4442,2.4394,2.4396,2.4381,2.4347,2.4338,2.4331,2.4309,2.4302,2.4281,2.4273,2.4252,2.4234,2.422,2.4197,2.4195,2.4214,2.4176,2.4175,2.4182,2.4217,2.4229,2.4233,2.4199,2.4199,2.4199,2.4218,0,2.4468,2.4454,2.4425,2.442,2.4409,2.4374,2.4368,2.4346,2.4325,2.4311,2.4287,2.4272,2.4252,2.4242,2.4239,2.4213,2.422,2.4211,2.4189,2.4188,2.4195,2.4236,2.4249,2.4268,2.422,2.4221,2.4221,0,2.4497,2.4478,2.4472,2.4438,2.4432,2.4427,2.4403,2.4392,2.4366,2.435,2.4334,2.4308,2.4298,2.4278,2.4262,2.4256,2.4246,2.4231,2.4231,2.4226,2.4205,2.423,2.4274,2.4276,2.4224,2.4224,2.4224,0,2.4539,2.4513,2.4505,2.4494,2.4454,2.4451,2.4435,2.4408,2.4396,2.4375,2.4367,2.4345,2.4333,2.4316,2.4285,2.4274,2.4271,2.425,2.4257,2.4257,2.4256,2.4256,2.4297,2.4253,2.4253,2.4253,2.4253,0,2.457,2.4567,2.4523,2.4518,2.4513,2.448,2.4476,2.4456,2.4432,2.4421,2.439,2.4381,2.4342,2.4327,2.4303,2.4292,2.4287,2.4273,2.4266,2.4274,2.4276,2.4265,2.4262,2.4254,2.4253,2.4253,2.4253,0,2.4616,2.4587,2.4576,2.4539,2.453,2.4528,2.4496,2.4489,2.4467,2.4454,2.4449,2.4412,2.4394,2.4362,2.4334,2.4317,2.431,2.43,2.4319,2.4314,2.4322,2.4321,2.4356,2.4357,2.4315,2.4315,2.4316,0,2.4636,2.4633,2.4597,2.4588,2.4572,2.4558,2.4546,2.4513,2.4501,2.4471,2.4467,2.4447,2.4428,2.4399,2.437,2.4348,2.4335,2.4349,2.4331,2.4339,2.4333,2.4332,2.4331,2.4352,2.4353,2.4353,2.4354,0,2.4675,2.4661,2.4645,2.4624,2.461,2.4592,2.4571,2.4566,2.4528,2.4516,2.4497,2.4482,2.4454,2.4433,2.4406,2.4388,2.4364,2.436,2.436,2.4367,2.4377,2.437,2.4327,2.4359,2.4358,2.4358,2.4358,2.4357,2.4707,2.4702,2.4675,2.4658,2.464,2.4621,2.4613,2.4589,2.4573,2.4547,2.4529,2.4511,2.4483,2.4445,2.4428,2.4412,2.4401,2.4402,2.4402,2.4402,2.4404,2.4382,2.4407,2.4407,2.4407,2.4407,2.4407,0,2.4742,2.4723,2.4708,2.4681,2.4667,2.4648,2.4624,2.4613,2.4598,2.4575,2.4557,2.4535,2.4514,2.4483,2.4459,2.4452,2.444,2.4447,2.4446,2.4441,2.4416,2.4417,2.4456,2.4456,2.4456,2.4456,2.4456,2.4456,2.4758,2.4748,2.4731,2.4711,2.4692,2.4674,2.4662,2.4645,2.4626,2.4602,2.4585,2.4565,2.4538,2.4512,2.4492,2.4483,2.4475,2.4484,2.4472,2.4448,2.4443,2.4439,2.444,2.4483,2.4483,2.4498,2.4498,2.4498]}]]